Location: Handeloh
(53.2500°N, 9.8330°E)
Time: 02:46:28
(UTC+01:00)

Tiros 1 - Visible Passes

Search period start: 25 January 2021 00:00
Search period end: 04 February 2021 00:00
Orbit: 630 x 663 km, 48.4° (Epoch: 24 January)

Date Brightness Start Highest point End Pass type
(mag) Time Alt. Az. Time Alt. Az. Time Alt. Az.
25 Jan 8.9 17:42:38 10° SSW 17:45:53 19° SSE 17:49:08 10° ESE visible
25 Jan 7.8 19:22:59 10° SW 19:27:18 40° SSE 19:27:23 40° SSE visible
25 Jan 10.0 21:04:37 10° WSW 21:05:02 12° WSW 21:05:02 12° WSW visible
26 Jan 8.4 18:07:28 10° SW 18:11:28 29° SSE 18:14:40 14° ESE visible
26 Jan 7.9 19:48:39 10° WSW 19:52:19 42° SSW 19:52:19 42° SSW visible
27 Jan 8.0 18:32:51 10° SW 18:37:10 39° SSE 18:39:36 22° ESE visible
27 Jan 8.6 20:14:28 10° WSW 20:17:15 32° SW 20:17:15 32° SW visible
28 Jan 7.7 18:58:30 10° WSW 19:02:56 46° S 19:04:31 33° SE visible
28 Jan 9.3 20:40:23 10° W 20:42:11 21° WSW 20:42:11 21° WSW visible
29 Jan 8.1 17:42:43 10° SW 17:47:01 38° SSE 17:51:19 10° E visible
29 Jan 7.6 19:24:19 10° WSW 19:28:45 46° S 19:29:28 42° SSE visible
29 Jan 9.9 21:06:25 10° W 21:07:07 14° WSW 21:07:07 14° WSW visible
30 Jan 7.9 18:08:21 10° WSW 18:12:48 45° S 18:16:45 13° ESE visible
30 Jan 8.0 19:50:12 10° W 19:54:25 39° SSW 19:54:25 39° SSW visible
31 Jan 7.8 18:34:09 10° WSW 18:38:36 46° S 18:41:44 18° ESE visible
31 Jan 8.7 20:16:13 10° W 20:19:24 27° SW 20:19:24 27° SW visible
01 Feb 8.1 19:00:02 10° W 19:04:23 40° SSW 19:06:46 23° SE visible
01 Feb 9.5 20:42:31 10° WSW 20:44:26 17° SW 20:44:26 17° SW visible
02 Feb 8.0 17:43:59 10° WSW 17:48:27 47° S 17:52:54 10° ESE visible
02 Feb 8.5 19:26:02 10° W 19:30:06 30° SSW 19:31:52 23° SSE visible
03 Feb 8.2 18:09:51 10° W 18:14:15 41° SSW 18:18:36 10° ESE visible
03 Feb 9.1 19:52:16 10° W 19:55:42 20° SSW 19:57:04 18° S visible
